Date String (YYYY-MM-DD hh:mm:ss) UTC,Instrument flags,Ambient pressure (hPa),Sample flow (lpm),Bypass flow (lpm),Sample temperature (°C),Ambient temperature (°C),ASC tube jacket temperature (°C),LED temperature (°C),Box temperature (°C),Sample RH (%),Span deviation,Mass concentration (μg/m³),Mass concentration (μg/m³),Mass concentration (μg/m³)
DateTimeUTC,F1_M11,P_M11,Q1_M11,Q2_M11,T1_M11,T2_M11,T3_M11,T4_M11,T5_M11,U1_M11,ZSPAN_M11,X0_M11,X2_M11,X1_M11
2023-02-21 15:00:00,,0806.5,5.00,0.00,22.0,20.3,00.0,31.0,23.6,13.0,0000.0,0003.20,0000.84,0000.32
2023-02-21 15:01:00,,0806.7,5.01,0.00,22.0,20.3,00.0,30.9,23.6,12.9,0000.0,0006.30,0000.95,0000.33
2023-02-21 15:02:00,,0806.5,5.00,0.00,22.0,20.3,00.0,30.9,23.6,12.5,0000.0,0006.40,0000.98,0000.34
2023-02-21 15:03:00,,0806.6,4.98,0.00,21.9,20.2,00.0,30.9,23.6,13.0,0000.0,0006.58,0001.02,0000.36
2023-02-21 15:04:00,,0806.6,5.01,0.00,21.9,20.2,00.0,30.9,23.6,13.1,0000.0,0006.53,0000.99,0000.37
2023-02-21 15:05:00,,0806.7,4.98,0.00,21.9,20.2,00.0,30.9,23.5,12.8,0000.0,0006.62,0001.02,0000.38
2023-02-21 15:06:00,,0806.9,4.98,0.00,21.9,20.3,00.0,30.9,23.5,12.6,0000.0,0006.77,0001.07,0000.38
2023-02-21 15:07:00,,0807.1,5.02,0.00,21.9,21.3,00.0,30.8,23.8,13.0,0000.0,0006.83,0001.08,0000.38
2023-02-21 15:08:00,,0807.1,5.00,0.00,22.1,22.6,00.0,30.8,24.1,12.6,0000.0,0006.70,0001.07,0000.38
2023-02-21 15:09:00,,0807.0,4.99,0.00,22.2,23.2,00.0,30.8,24.3,12.7,0000.0,0006.55,0001.10,0000.37
2023-02-21 15:10:00,,0806.2,5.00,0.00,22.3,22.7,00.0,30.9,24.3,12.7,0000.0,0007.53,0001.28,0000.39
2023-02-21 15:11:00,,0806.3,5.00,0.00,22.3,22.2,00.0,31.0,24.2,12.9,0000.0,0016.81,0003.01,0000.60
2023-02-21 15:12:00,,0806.5,5.00,0.00,22.3,21.8,00.0,31.0,24.1,12.9,0000.0,0023.40,0004.31,0000.81
2023-02-21 15:13:00,,0806.6,5.01,0.00,22.3,21.5,00.0,31.0,24.1,12.9,0000.0,0025.11,0004.63,0000.88
2023-02-21 15:14:00,,0806.5,4.99,0.00,22.3,21.3,00.0,31.0,24.0,12.9,0000.0,0026.05,0004.72,0000.90
2023-02-21 15:15:00,,0806.3,5.00,0.00,22.3,21.1,00.0,31.0,24.0,12.9,0000.0,0026.45,0004.80,0000.91
2023-02-21 15:16:00,,0806.3,5.01,0.00,22.3,21.0,00.0,31.0,23.9,12.9,0000.0,0026.90,0004.87,0000.93
2023-02-21 15:17:00,,0806.3,5.00,0.00,22.2,20.8,00.0,31.1,23.9,12.9,0000.0,0028.70,0005.08,0000.97
2023-02-21 15:18:00,,0806.4,4.99,0.00,22.2,20.7,00.0,31.1,23.9,12.8,0000.0,0029.90,0005.24,0001.00
2023-02-21 15:19:00,,0806.4,4.99,0.00,22.2,20.6,00.0,31.1,23.8,12.7,0000.0,0030.14,0005.28,0001.01
2023-02-21 15:20:00,,0806.2,5.00,0.00,22.2,20.5,00.0,31.0,23.8,12.6,0000.0,0030.21,0005.28,0001.02
2023-02-21 15:21:00,,0806.5,5.02,0.00,22.1,20.4,00.0,31.0,23.8,12.8,0000.0,0029.49,0005.22,0001.01
2023-02-21 15:22:00,,0806.4,5.00,0.00,22.1,20.3,00.0,31.0,23.7,13.1,0000.0,0019.57,0004.06,0000.80
2023-02-21 15:23:00,,0806.5,4.99,0.00,22.1,20.3,00.0,31.0,23.7,12.9,0000.0,0011.48,0002.72,0000.60
2023-02-21 15:24:00,,0806.3,4.99,0.00,22.0,20.2,00.0,31.0,23.6,13.1,0000.0,0009.79,0002.19,0000.54
2023-02-21 15:25:00,,0806.3,5.02,0.00,22.0,20.2,00.0,31.0,23.6,13.2,0000.0,0009.63,0002.09,0000.53
2023-02-21 15:26:00,,0806.2,5.00,0.00,22.0,20.1,00.0,31.0,23.6,13.3,0000.0,0009.60,0001.99,0000.53
2023-02-21 15:27:00,,0806.2,5.00,0.00,22.0,20.1,00.0,30.9,23.5,13.3,0000.0,0009.54,0001.90,0000.51
2023-02-21 15:28:00,,0806.4,5.01,0.00,21.9,20.1,00.0,30.9,23.5,13.3,0000.0,0007.83,0001.60,0000.49
2023-02-21 15:29:00,,0806.1,5.01,0.00,21.9,20.1,00.0,30.9,23.5,13.5,0000.0,0005.78,0001.26,0000.47
2023-02-21 15:30:00,,0806.0,4.99,0.00,21.9,20.2,00.0,30.9,23.5,13.4,0000.0,0006.28,0001.30,0000.48
2023-02-21 15:31:00,,0806.1,5.02,0.00,21.9,21.2,00.0,30.8,23.8,13.1,0000.0,0007.36,0001.51,0000.51
2023-02-21 15:32:00,,0806.1,4.98,0.00,22.1,22.6,00.0,30.8,24.1,13.2,0000.0,0007.99,0001.46,0000.52
2023-02-21 15:33:00,,0806.1,5.00,0.00,22.2,22.6,00.0,30.9,24.2,13.0,0000.0,0007.93,0001.43,0000.51
2023-02-21 15:34:00,,0806.2,5.01,0.00,22.2,22.1,00.0,30.9,24.1,13.1,0000.0,0007.90,0001.43,0000.52
2023-02-21 15:35:00,,0805.8,5.01,0.00,22.2,21.7,00.0,31.0,24.1,13.2,0000.0,0008.04,0001.49,0000.54
2023-02-21 15:36:00,,0805.7,5.00,0.00,22.2,21.4,00.0,31.0,24.0,12.8,0000.0,0008.70,0001.90,0000.58
2023-02-21 15:37:00,,0805.9,4.99,0.00,22.2,21.1,00.0,31.0,23.9,12.5,0000.0,0016.66,0003.39,0000.74
2023-02-21 15:38:00,,0806.1,5.01,0.00,22.2,20.9,00.0,31.0,23.9,12.8,0000.0,0021.43,0004.16,0000.84
2023-02-21 15:39:00,,0806.0,5.01,0.00,22.2,20.8,00.0,31.0,23.9,13.0,0000.0,0021.94,0004.20,0000.87
2023-02-21 15:40:00,,0806.0,4.99,0.00,22.1,20.7,00.0,31.0,23.8,13.1,0000.0,0021.96,0004.19,0000.87
2023-02-21 15:41:00,,0806.2,5.00,0.00,22.1,20.6,00.0,31.0,23.8,13.2,0000.0,0021.28,0004.10,0000.86
2023-02-21 15:42:00,,0806.3,4.99,0.00,22.1,20.5,00.0,31.0,23.8,13.5,0000.0,0020.64,0003.98,0000.84
2023-02-21 15:43:00,,0806.2,5.01,0.00,22.1,20.4,00.0,31.0,23.8,13.3,0000.0,0019.84,0003.96,0000.84
2023-02-21 15:44:00,,0805.9,5.01,0.00,22.1,20.4,00.0,31.0,23.8,13.3,0000.0,0019.93,0003.96,0000.84
2023-02-21 15:45:00,,0805.9,5.00,0.00,22.1,20.3,00.0,31.0,23.8,13.2,0000.0,0019.94,0003.96,0000.85
2023-02-21 15:46:00,,0806.0,5.00,0.00,22.0,20.3,00.0,31.0,23.7,13.2,0000.0,0019.87,0003.96,0000.84
2023-02-21 15:47:00,,0806.1,4.98,0.00,22.0,20.3,00.0,31.0,23.7,12.9,0000.0,0019.35,0003.81,0000.80
2023-02-21 15:48:00,,0806.1,5.01,0.00,22.0,20.3,00.0,30.9,23.6,12.8,0000.0,0012.20,0002.78,0000.66
2023-02-21 15:49:00,,0805.9,5.00,0.00,22.0,20.3,00.0,30.9,23.6,12.8,0000.0,0004.72,0001.33,0000.54
2023-02-21 15:50:00,,0805.7,5.00,0.00,22.0,20.3,00.0,30.9,23.6,12.9,0000.0,0008.02,0001.99,0000.59
2023-02-21 15:51:00,,0805.7,5.00,0.00,22.0,20.2,00.0,30.9,23.6,13.0,0000.0,0011.55,0002.89,0000.66
2023-02-21 15:52:00,,0805.5,5.01,0.00,21.9,20.2,00.0,30.9,23.6,13.1,0000.0,0012.78,0003.20,0000.70
2023-02-21 15:53:00,,0805.4,5.00,0.00,21.9,20.1,00.0,30.9,23.6,13.1,0000.0,0013.43,0003.28,0000.71
2023-02-21 15:54:00,,0805.1,5.00,0.00,21.9,20.1,00.0,30.8,23.5,13.0,0000.0,0014.83,0003.36,0000.73
2023-02-21 15:55:00,,0805.3,5.02,0.00,21.8,20.0,00.0,30.8,23.5,13.1,0000.0,0016.69,0003.52,0000.78
2023-02-21 15:56:00,,0805.3,5.00,0.00,21.8,20.0,00.0,30.8,23.4,13.3,0000.0,0017.45,0003.63,0000.81
2023-02-21 15:57:00,,0805.2,5.01,0.00,21.9,21.0,00.0,30.7,23.7,13.3,0000.0,0018.11,0003.60,0000.81
2023-02-21 15:58:00,,0805.1,4.98,0.00,22.0,22.4,00.0,30.7,24.1,13.3,0000.0,0019.27,0003.58,0000.81
2023-02-21 15:59:00,,0805.1,4.99,0.00,22.1,22.6,00.0,30.8,24.2,13.0,0000.0,0025.41,0003.66,0000.83
